Location: Altleiningen
(49.5078°N, 8.0741°E)
Time: 00:09:30
(UTC+00:00)

Okean 1 - Pass Details

Date: 03 March 2021
Orbit: 539 x 553 km, 82.5° (Epoch: 13 April)

Event Time Altitude Azimuth Distance (km) Brightness Sun altitude
Rises 17:52:30 0° 352° (N) 2,733 7.0 -7.1°
Reaches altitude 10° 17:54:42 10° 356° (N) 1,836 6.0 -7.4°
Maximum altitude 17:58:42 61° 78° (ENE) 631 3.3 -8.1°
Drops below altitude 10° 18:02:41 10° 159° (SSE) 1,828 5.8 -8.7°
Sets 18:04:52 0° 163° (SSE) 2,719 6.7 -9.1°
